This is the latest recevied weather packets stored in our database for station/object K0KDS. If no packets are shown the sender has not sent any weather packets the latest 10 day(s).
| Time | Temp. | Humidity | Pressure | Rain* | Wind** | Luminosity | Snow |
|---|---|---|---|---|---|---|---|
| 1777783646 | 11.67° C | 46% | 1011.6 hPa | 0 mm | - | - | - |
| 1777782746 | 11.67° C | 46% | 1011.7 hPa | 0 mm | - | - | - |
| 1777781846 | 11.67° C | 46% | 1011.9 hPa | 0 mm | - | - | - |
| 1777780946 | 11.67° C | 47% | 1012.1 hPa | 0 mm | - | - | - |
| 1777780046 | 11.67° C | 47% | 1012.3 hPa | 0 mm | - | - | - |
| 1777779146 | 11.67° C | 46% | 1012.5 hPa | 0 mm | - | - | - |
| 1777778246 | 12.22° C | 45% | 1012.7 hPa | 0 mm | - | - | - |
| 1777777346 | 11.67° C | 45% | 1012.7 hPa | 0 mm | - | - | - |
| 1777776446 | 12.22° C | 45% | 1012.8 hPa | 0 mm | - | - | - |
| 1777775546 | 12.22° C | 44% | 1012.9 hPa | 0 mm | - | - | - |
| 1777774646 | 12.78° C | 42% | 1012.9 hPa | 0 mm | - | - | - |
| 1777773746 | 13.33° C | 41% | 1013 hPa | 0 mm | - | - | - |
| 1777772846 | 13.89° C | 38% | 1013.1 hPa | 0 mm | - | - | - |
| 1777771946 | 14.44° C | 36% | 1013.1 hPa | 0 mm | - | - | - |
| 1777771046 | 15° C | 34% | 1013 hPa | 0 mm | - | - | - |
| 1777770146 | 15.56° C | 33% | 1013 hPa | 0 mm | - | - | - |
| 1777769246 | 16.67° C | 30% | 1013 hPa | 0 mm | - | - | - |
| 1777768346 | 16.67° C | 29% | 1013.1 hPa | 0 mm | - | - | - |
| 1777767446 | 17.22° C | 29% | 1013.2 hPa | 0 mm | - | - | - |
| 1777766546 | 17.22° C | 30% | 1013.4 hPa | 0 mm | - | - | - |
| 1777765646 | 17.22° C | 29% | 1013.4 hPa | 0 mm | - | - | - |
| 1777764746 | 17.78° C | 29% | 1013.6 hPa | 0 mm | - | - | - |
| 1777763846 | 17.78° C | 29% | 1013.7 hPa | 0 mm | - | - | - |
| 1777762946 | 17.78° C | 29% | 1013.9 hPa | 0 mm | - | - | - |
| 1777762046 | 17.78° C | 30% | 1014 hPa | 0 mm | - | - | - |
* Rain latest hour (hover to see other rain measurements)
** Current wind speed in m/s (hover to see current wind gust speed)